Time,TemperatureF,DewpointF,PressureIn,WindDirection,WindDirectionDegrees,WindSpeedMPH,WindSpeedGustMPH,Humidity,HourlyPrecipIn,Conditions,Clouds,dailyrainin,SolarRadiationWatts/m^2,SoftwareType,DateUTC
2013-04-13 00:02:00,20.0,19.0,-100.00,North,351,5.0,10.0,94,0.00,,,0.18,0.000000,,2013-04-13 05:02:00,
2013-04-13 00:12:00,20.0,19.0,-100.00,North,351,5.0,10.0,94,0.00,,,0.18,0.000000,,2013-04-13 05:12:00,
2013-04-13 00:32:00,20.0,19.0,-100.00,NNW,345,5.0,8.0,95,0.00,,,0.18,0.000000,,2013-04-13 05:32:00,
2013-04-13 00:43:00,20.0,19.0,-100.00,NNW,345,5.0,8.0,95,0.00,,,0.18,0.000000,,2013-04-13 05:43:00,
2013-04-13 00:52:00,20.0,19.0,-100.00,NNW,345,5.0,8.0,95,0.00,,,0.18,0.000000,,2013-04-13 05:52:00,
2013-04-13 01:02:00,20.0,19.0,-100.00,NNW,345,5.0,8.0,95,0.00,,,0.18,0.000000,,2013-04-13 06:02:00,
2013-04-13 01:12:00,20.0,19.0,-100.00,NNW,345,5.0,8.0,95,0.00,,,0.18,0.000000,,2013-04-13 06:12:00,
2013-04-13 01:13:00,19.0,18.0,-100.00,NNW,338,5.0,8.0,95,0.00,,,0.18,0.000000,,2013-04-13 06:13:00,
2013-04-13 01:36:00,19.0,18.0,-100.00,NNW,338,5.0,8.0,95,0.00,,,0.18,0.000000,,2013-04-13 06:36:00,
2013-04-13 01:49:00,19.0,18.0,-100.00,NNW,338,5.0,8.0,95,0.00,,,0.18,0.000000,,2013-04-13 06:49:00,
2013-04-13 01:55:00,19.0,18.0,-100.00,NNW,338,5.0,8.0,95,0.00,,,0.18,0.000000,,2013-04-13 06:55:00,
2013-04-13 02:05:00,19.0,18.0,-100.00,NNW,338,5.0,8.0,95,0.00,,,0.18,0.000000,,2013-04-13 07:05:00,
2013-04-13 02:35:00,19.0,18.0,-100.00,NNW,334,5.0,8.0,95,0.00,,,0.18,0.000000,,2013-04-13 07:35:00,
2013-04-13 02:45:00,19.0,18.0,-100.00,NNW,334,5.0,8.0,95,0.00,,,0.18,0.000000,,2013-04-13 07:45:00,
2013-04-13 02:56:00,19.0,18.0,-100.00,NNW,334,5.0,8.0,95,0.00,,,0.18,0.000000,,2013-04-13 07:56:00,
2013-04-13 03:06:00,19.0,18.0,-100.00,NNW,334,5.0,8.0,95,0.00,,,0.18,0.000000,,2013-04-13 08:06:00,
2013-04-13 03:13:00,19.0,18.0,-100.00,NNW,330,5.0,7.0,95,0.00,,,0.18,1.000000,,2013-04-13 08:13:00,
2013-04-13 03:47:00,19.0,18.0,-100.00,NNW,330,5.0,7.0,95,0.00,,,0.18,1.000000,,2013-04-13 08:47:00,
2013-04-13 03:54:00,19.0,18.0,-100.00,NNW,330,5.0,7.0,95,0.00,,,0.18,1.000000,,2013-04-13 08:54:00,
2013-04-13 04:05:00,19.0,18.0,-100.00,NNW,330,5.0,7.0,95,0.00,,,0.18,1.000000,,2013-04-13 09:05:00,
2013-04-13 04:13:00,19.0,18.0,-100.00,NNW,338,5.0,7.0,95,0.00,,,0.18,0.000000,,2013-04-13 09:13:00,
2013-04-13 04:53:00,19.0,18.0,-100.00,NNW,338,5.0,7.0,95,0.00,,,0.18,0.000000,,2013-04-13 09:53:00,
2013-04-13 05:05:00,19.0,18.0,-100.00,NNW,338,5.0,7.0,95,0.00,,,0.18,0.000000,,2013-04-13 10:05:00,
2013-04-13 05:13:00,20.0,19.0,-100.00,NNW,344,5.0,8.0,95,0.00,,,0.18,0.000000,,2013-04-13 10:13:00,
2013-04-13 05:38:00,20.0,19.0,-100.00,NNW,344,5.0,8.0,95,0.00,,,0.18,0.000000,,2013-04-13 10:38:00,
2013-04-13 05:50:00,20.0,19.0,-100.00,NNW,344,5.0,8.0,95,0.00,,,0.18,0.000000,,2013-04-13 10:50:00,
2013-04-13 06:06:00,20.0,19.0,-100.00,NNW,344,5.0,8.0,95,0.00,,,0.18,0.000000,,2013-04-13 11:06:00,
2013-04-13 06:13:00,20.0,19.0,-100.00,North,351,4.0,8.0,95,0.00,,,0.18,1.000000,,2013-04-13 11:13:00,
2013-04-13 06:35:00,20.0,19.0,-100.00,North,351,4.0,8.0,95,0.00,,,0.18,1.000000,,2013-04-13 11:35:00,
2013-04-13 06:46:00,20.0,19.0,-100.00,North,351,4.0,8.0,95,0.00,,,0.18,1.000000,,2013-04-13 11:46:00,
2013-04-13 06:54:00,20.0,19.0,-100.00,North,351,4.0,8.0,95,0.00,,,0.18,1.000000,,2013-04-13 11:54:00,
2013-04-13 07:08:00,20.0,19.0,-100.00,North,351,4.0,8.0,95,0.00,,,0.18,1.000000,,2013-04-13 12:08:00,
2013-04-13 07:13:00,20.0,19.0,-100.00,North,356,5.0,10.0,94,0.00,,,0.18,11.000000,,2013-04-13 12:13:00,
2013-04-13 07:37:00,20.0,19.0,-100.00,North,356,5.0,10.0,94,0.00,,,0.18,11.000000,,2013-04-13 12:37:00,
2013-04-13 07:49:00,20.0,19.0,-100.00,North,356,5.0,10.0,94,0.00,,,0.18,11.000000,,2013-04-13 12:49:00,
2013-04-13 07:55:00,20.0,19.0,-100.00,North,356,5.0,10.0,94,0.00,,,0.18,11.000000,,2013-04-13 12:55:00,
2013-04-13 08:05:00,20.0,19.0,-100.00,North,356,5.0,10.0,94,0.00,,,0.18,11.000000,,2013-04-13 13:05:00,
2013-04-13 08:13:00,23.0,21.0,-100.00,North,3,4.0,10.0,90,0.00,,,0.18,86.000000,,2013-04-13 13:13:00,
2013-04-13 08:49:00,23.0,21.0,-100.00,North,3,4.0,10.0,90,0.00,,,0.18,86.000000,,2013-04-13 13:49:00,
2013-04-13 08:56:00,23.0,21.0,-100.00,North,3,4.0,10.0,90,0.00,,,0.18,86.000000,,2013-04-13 13:56:00,
2013-04-13 09:04:00,23.0,21.0,-100.00,North,3,4.0,10.0,90,0.00,,,0.18,86.000000,,2013-04-13 14:04:00,
2013-04-13 09:13:00,25.0,21.0,-100.00,North,9,4.0,8.0,83,0.00,,,0.18,178.000000,,2013-04-13 14:13:00,
2013-04-13 09:48:00,25.0,21.0,-100.00,North,9,4.0,8.0,83,0.00,,,0.18,178.000000,,2013-04-13 14:48:00,
2013-04-13 09:59:00,25.0,21.0,-100.00,North,9,4.0,8.0,83,0.00,,,0.18,178.000000,,2013-04-13 14:59:00,
2013-04-13 10:04:00,25.0,21.0,-100.00,North,9,4.0,8.0,83,0.00,,,0.18,178.000000,,2013-04-13 15:04:00,
2013-04-13 10:13:00,26.0,20.0,-100.00,NNW,345,6.0,10.0,78,0.00,,,0.18,233.000000,,2013-04-13 15:13:00,
2013-04-13 10:45:00,26.0,20.0,-100.00,NNW,345,6.0,10.0,78,0.00,,,0.18,233.000000,,2013-04-13 15:45:00,
2013-04-13 10:58:00,26.0,20.0,-100.00,NNW,345,6.0,10.0,78,0.00,,,0.18,233.000000,,2013-04-13 15:58:00,
2013-04-13 11:06:00,26.0,20.0,-100.00,NNW,345,6.0,10.0,78,0.00,,,0.18,233.000000,,2013-04-13 16:06:00,
2013-04-13 11:13:00,28.0,20.0,-100.00,NNW,338,8.0,12.0,73,0.02,,,0.20,383.000000,,2013-04-13 16:13:00,
2013-04-13 11:48:00,28.0,20.0,-100.00,NNW,338,8.0,12.0,73,0.02,,,0.20,383.000000,,2013-04-13 16:48:00,
2013-04-13 11:55:00,28.0,20.0,-100.00,NNW,338,8.0,12.0,73,0.02,,,0.20,383.000000,,2013-04-13 16:55:00,
2013-04-13 12:05:00,28.0,20.0,-100.00,NNW,338,8.0,12.0,73,0.02,,,0.20,383.000000,,2013-04-13 17:05:00,
2013-04-13 12:13:00,30.0,22.0,-100.00,North,350,5.0,11.0,72,0.07,,,0.27,461.000000,,2013-04-13 17:13:00,
2013-04-13 12:38:00,30.0,22.0,-100.00,North,350,5.0,11.0,72,0.07,,,0.27,461.000000,,2013-04-13 17:38:00,
2013-04-13 12:45:00,30.0,22.0,-100.00,North,350,5.0,11.0,72,0.07,,,0.27,461.000000,,2013-04-13 17:45:00,
2013-04-13 13:04:00,30.0,22.0,-100.00,North,350,5.0,11.0,72,0.07,,,0.27,461.000000,,2013-04-13 18:04:00,
2013-04-13 13:33:00,30.0,22.0,-100.00,NNW,339,6.0,11.0,71,0.03,,,0.24,396.000000,,2013-04-13 18:33:00,
2013-04-13 13:42:00,30.0,22.0,-100.00,NNW,339,6.0,11.0,71,0.03,,,0.24,396.000000,,2013-04-13 18:42:00,
2013-04-13 13:53:00,30.0,22.0,-100.00,NNW,339,6.0,11.0,71,0.03,,,0.24,396.000000,,2013-04-13 18:53:00,
2013-04-13 14:03:00,30.0,22.0,-100.00,NNW,339,6.0,11.0,71,0.03,,,0.24,396.000000,,2013-04-13 19:03:00,
2013-04-13 14:12:00,30.0,22.0,-100.00,NNW,339,6.0,11.0,71,0.03,,,0.24,396.000000,,2013-04-13 19:12:00,
2013-04-13 14:42:00,32.0,22.0,-100.00,NNW,340,5.0,14.0,66,0.01,,,0.17,370.000000,,2013-04-13 19:42:00,
2013-04-13 14:53:00,32.0,22.0,-100.00,NNW,340,5.0,14.0,66,0.01,,,0.17,370.000000,,2013-04-13 19:53:00,
2013-04-13 15:02:00,32.0,22.0,-100.00,NNW,340,5.0,14.0,66,0.01,,,0.17,370.000000,,2013-04-13 20:02:00,
2013-04-13 15:12:00,32.0,22.0,-100.00,NNW,340,5.0,14.0,66,0.01,,,0.17,370.000000,,2013-04-13 20:12:00,
2013-04-13 15:32:00,33.0,22.0,-100.00,NW,325,5.0,9.0,63,0.00,,,0.15,314.000000,,2013-04-13 20:32:00,
2013-04-13 15:42:00,33.0,22.0,-100.00,NW,325,5.0,9.0,63,0.00,,,0.15,314.000000,,2013-04-13 20:42:00,
2013-04-13 15:52:00,33.0,22.0,-100.00,NW,325,5.0,9.0,63,0.00,,,0.15,314.000000,,2013-04-13 20:52:00,
2013-04-13 16:02:00,33.0,22.0,-100.00,NW,325,5.0,9.0,63,0.00,,,0.15,314.000000,,2013-04-13 21:02:00,
2013-04-13 16:12:00,33.0,22.0,-100.00,NW,325,5.0,9.0,63,0.00,,,0.15,314.000000,,2013-04-13 21:12:00,
2013-04-13 16:33:00,33.0,23.0,-100.00,NNW,337,5.0,9.0,65,0.00,,,0.13,330.000000,,2013-04-13 21:33:00,
2013-04-13 16:43:00,33.0,23.0,-100.00,NNW,337,5.0,9.0,65,0.00,,,0.13,330.000000,,2013-04-13 21:43:00,
2013-04-13 16:53:00,33.0,23.0,-100.00,NNW,337,5.0,9.0,65,0.00,,,0.13,330.000000,,2013-04-13 21:53:00,
2013-04-13 17:03:00,33.0,23.0,-100.00,NNW,337,5.0,9.0,65,0.00,,,0.13,330.000000,,2013-04-13 22:03:00,
2013-04-13 17:12:00,33.0,23.0,-100.00,NNW,337,5.0,9.0,65,0.00,,,0.13,330.000000,,2013-04-13 22:12:00,
2013-04-13 17:33:00,34.0,24.0,-100.00,NNW,335,6.0,12.0,67,0.00,,,0.13,388.000000,,2013-04-13 22:33:00,
2013-04-13 17:42:00,34.0,24.0,-100.00,NNW,335,6.0,12.0,67,0.00,,,0.13,388.000000,,2013-04-13 22:42:00,
2013-04-13 17:53:00,34.0,24.0,-100.00,NNW,335,6.0,12.0,67,0.00,,,0.13,388.000000,,2013-04-13 22:53:00,
2013-04-13 18:02:00,34.0,24.0,-100.00,NNW,335,6.0,12.0,67,0.00,,,0.13,388.000000,,2013-04-13 23:02:00,
2013-04-13 18:12:00,34.0,24.0,-100.00,NNW,335,6.0,12.0,67,0.00,,,0.13,388.000000,,2013-04-13 23:12:00,
2013-04-13 18:33:00,32.0,24.0,-100.00,NNW,329,5.0,10.0,71,0.00,,,0.13,214.000000,,2013-04-13 23:33:00,
2013-04-13 18:43:00,32.0,24.0,-100.00,NNW,329,5.0,10.0,71,0.00,,,0.13,214.000000,,2013-04-13 23:43:00,
2013-04-13 18:53:00,32.0,24.0,-100.00,NNW,329,5.0,10.0,71,0.00,,,0.13,214.000000,,2013-04-13 23:53:00,
2013-04-13 19:02:00,32.0,24.0,-100.00,NNW,329,5.0,10.0,71,0.00,,,0.13,214.000000,,2013-04-14 00:02:00,
2013-04-13 19:12:00,32.0,24.0,-100.00,NNW,329,5.0,10.0,71,0.00,,,0.13,214.000000,,2013-04-14 00:12:00,
2013-04-13 20:42:00,26.0,22.0,-100.00,NW,304,3.0,7.0,86,-99.99,,,0.13,19.000000,,2013-04-14 01:42:00,
2013-04-13 20:53:00,26.0,22.0,-100.00,NW,304,3.0,7.0,86,-99.99,,,0.13,19.000000,,2013-04-14 01:53:00,
2013-04-13 21:02:00,26.0,22.0,-100.00,NW,304,3.0,7.0,86,-99.99,,,0.13,19.000000,,2013-04-14 02:02:00,
2013-04-13 21:12:00,26.0,22.0,-100.00,NW,304,3.0,7.0,86,-99.99,,,0.13,19.000000,,2013-04-14 02:12:00,
2013-04-13 21:33:00,26.0,22.0,-100.00,NW,323,4.0,5.0,83,0.00,,,0.13,1.000000,,2013-04-14 02:33:00,
2013-04-13 21:43:00,26.0,22.0,-100.00,NW,323,4.0,5.0,83,0.00,,,0.13,1.000000,,2013-04-14 02:43:00,
2013-04-13 21:53:00,26.0,22.0,-100.00,NW,323,4.0,5.0,83,0.00,,,0.13,1.000000,,2013-04-14 02:53:00,
2013-04-13 22:02:00,26.0,22.0,-100.00,NW,323,4.0,5.0,83,0.00,,,0.13,1.000000,,2013-04-14 03:02:00,
2013-04-13 22:12:00,26.0,22.0,-100.00,NW,323,4.0,5.0,83,0.00,,,0.13,1.000000,,2013-04-14 03:12:00,
2013-04-13 22:43:00,25.0,21.0,-100.00,WNW,288,4.0,5.0,84,0.00,,,0.13,0.000000,,2013-04-14 03:43:00,
2013-04-13 22:53:00,25.0,21.0,-100.00,WNW,288,4.0,5.0,84,0.00,,,0.13,0.000000,,2013-04-14 03:53:00,
2013-04-13 23:02:00,25.0,21.0,-100.00,WNW,288,4.0,5.0,84,0.00,,,0.13,0.000000,,2013-04-14 04:02:00,
2013-04-13 23:12:00,25.0,21.0,-100.00,WNW,288,4.0,5.0,84,0.00,,,0.13,0.000000,,2013-04-14 04:12:00,
2013-04-13 23:33:00,25.0,21.0,-100.00,West,281,5.0,8.0,84,0.00,,,0.13,0.000000,,2013-04-14 04:33:00,
2013-04-13 23:43:00,25.0,21.0,-100.00,West,281,5.0,8.0,84,0.00,,,0.13,0.000000,,2013-04-14 04:43:00,
2013-04-13 23:52:00,25.0,21.0,-100.00,West,281,5.0,8.0,84,0.00,,,0.13,0.000000,,2013-04-14 04:52:00,